When you browse on this site, cookies collect data to enhance your experience and personalize the content and advertising you see.
Visit our Privacy Policy to learn more. By continuing to use the site, you agree to this use of cookies and data.
  • în România
  • Lista ţărilor
  • Pe 7 zile
  • Temperatura apei
  • Hartă satelitară
  • Meteo pe hartă
  • Widget-uri
  • user-avatar
    Intrare

    Meteo pe oră la Saint-Dizier

    Astăzi, 17 Iunie, Luni

    Timp Temperatura Precipitaţii Vânt Presiune Umiditate
    00:00 +14°C° 0 mm 2 m/s 753 mmHg 93%
    01:00 +14°C° 0 mm 2 m/s 753 mmHg 93%
    02:00 +13°C° 0 mm 1 m/s 752 mmHg 93%
    03:00 +13°C° 0 mm 1 m/s 752 mmHg 93%
    04:00 +14°C° 0 mm 1 m/s 752 mmHg 92%
    05:00 +15°C° 0 mm 2 m/s 752 mmHg 91%
    06:00 +16°C° 0 mm 2 m/s 752 mmHg 90%
    07:00 +18°C° 0 mm 2 m/s 752 mmHg 85%
    08:00 +20°C° 0 mm 2 m/s 752 mmHg 80%
    09:00 +21°C° 0 mm 2 m/s 752 mmHg 75%
    10:00 +23°C° 0 mm 2 m/s 752 mmHg 72%
    11:00 +24°C° 0 mm 2 m/s 751 mmHg 69%
    12:00 +25°C° 0 mm 2 m/s 751 mmHg 66%
    13:00 +25°C° 0 mm 2 m/s 751 mmHg 66%
    14:00 +25°C° 0 mm 2 m/s 750 mmHg 67%
    15:00 +26°C° 0 mm 2 m/s 750 mmHg 68%
    16:00 +25°C° 0 mm 2 m/s 750 mmHg 72%
    17:00 +25°C° 0 mm 2 m/s 749 mmHg 76%
    18:00 +24°C° 0 mm 1 m/s 749 mmHg 80%
    19:00 +22°C° 0 mm 1 m/s 749 mmHg 82%
    20:00 +21°C° 0 mm 1 m/s 749 mmHg 85%
    21:00 +19°C° 0 mm 1 m/s 749 mmHg 88%
    22:00 +18°C° 0 mm 1 m/s 749 mmHg 89%
    23:00 +18°C° 0 mm 1 m/s 749 mmHg 90%

    Mâine, 18 Iunie, Marţi

    Timp Temperatura Precipitaţii Vânt Presiune Umiditate
    00:00 +16°C° 0 mm 1 m/s 749 mmHg 91%
    01:00 +16°C° 0 mm 1 m/s 749 mmHg 91%
    02:00 +15°C° 0 mm 1 m/s 748 mmHg 91%
    03:00 +15°C° 0 mm 1 m/s 748 mmHg 91%
    04:00 +16°C° 0 mm 1 m/s 748 mmHg 90%
    05:00 +16°C° 0 mm 0 m/s 748 mmHg 89%
    06:00 +17°C° 0 mm 0 m/s 748 mmHg 88%
    07:00 +19°C° 0 mm 0 m/s 748 mmHg 85%
    08:00 +20°C° 0 mm 0 m/s 748 mmHg 81%
    09:00 +22°C° 0 mm 0 m/s 748 mmHg 78%
    10:00 +23°C° 0 mm 0 m/s 748 mmHg 74%
    11:00 +26°C° 0 mm 1 m/s 747 mmHg 69%
    12:00 +27°C° 0 mm 1 m/s 747 mmHg 65%
    13:00 +27°C° 0 mm 1 m/s 747 mmHg 63%
    14:00 +27°C° 0 mm 1 m/s 747 mmHg 61%
    15:00 +28°C° 0 mm 1 m/s 746 mmHg 60%
    16:00 +27°C° 0 mm 1 m/s 746 mmHg 65%
    17:00 +26°C° 0 mm 1 m/s 746 mmHg 71%
    18:00 +25°C° 0 mm 1 m/s 745 mmHg 76%
    19:00 +24°C° 0 mm 1 m/s 745 mmHg 77%
    20:00 +21°C° 0 mm 2 m/s 745 mmHg 79%
    21:00 +20°C° 0 mm 2 m/s 745 mmHg 80%
    22:00 +19°C° 0 mm 2 m/s 745 mmHg 81%
    23:00 +19°C° 0 mm 3 m/s 745 mmHg 82%

    Poimâine, 19 Iunie, Miercuri

    Timp Temperatura Precipitaţii Vânt Presiune Umiditate
    00:00 +18°C° 0 mm 3 m/s 745 mmHg 84%
    01:00 +18°C° 0.1 mm 3 m/s 744 mmHg 84%
    02:00 +18°C° 0.1 mm 3 m/s 744 mmHg 85%
    03:00 +17°C° 0.1 mm 3 m/s 744 mmHg 85%
    04:00 +18°C° 0.2 mm 2 m/s 744 mmHg 87%
    05:00 +18°C° 0.2 mm 2 m/s 744 mmHg 89%
    06:00 +18°C° 0.2 mm 2 m/s 744 mmHg 91%
    07:00 +20°C° 0.1 mm 2 m/s 744 mmHg 88%
    08:00 +21°C° 0.1 mm 3 m/s 745 mmHg 85%
    09:00 +22°C° 0.1 mm 4 m/s 745 mmHg 82%
    10:00 +23°C° 0.1 mm 4 m/s 745 mmHg 80%
    11:00 +25°C° 0.1 mm 4 m/s 745 mmHg 78%
    12:00 +26°C° 0.1 mm 5 m/s 745 mmHg 75%
    13:00 +26°C° 0.4 mm 5 m/s 745 mmHg 75%
    14:00 +26°C° 0.4 mm 5 m/s 745 mmHg 74%
    15:00 +26°C° 0.4 mm 5 m/s 745 mmHg 74%
    16:00 +25°C° 0.2 mm 4 m/s 745 mmHg 78%
    17:00 +24°C° 0.2 mm 3 m/s 745 mmHg 82%
    18:00 +22°C° 0.2 mm 3 m/s 745 mmHg 87%
    19:00 +20°C° 0.1 mm 3 m/s 746 mmHg 89%
    20:00 +19°C° 0.1 mm 3 m/s 746 mmHg 91%
    21:00 +17°C° 0.1 mm 3 m/s 747 mmHg 93%
    22:00 +16°C° 0 mm 2 m/s 747 mmHg 93%
    23:00 +16°C° 0 mm 1 m/s 747 mmHg 94%

    20 Iunie, Joi

    Timp Temperatura Precipitaţii Vânt Presiune Umiditate
    00:00 +15°C° 0 mm 1 m/s 747 mmHg 94%
    01:00 +15°C° 0 mm 1 m/s 747 mmHg 94%
    02:00 +15°C° 0 mm 1 m/s 747 mmHg 95%
    03:00 +15°C° 0 mm 1 m/s 747 mmHg 95%
    04:00 +15°C° 0 mm 1 m/s 747 mmHg 95%
    05:00 +16°C° 0 mm 1 m/s 747 mmHg 94%
    06:00 +18°C° 0 mm 1 m/s 747 mmHg 94%
    07:00 +18°C° 0.1 mm 2 m/s 747 mmHg 91%
    08:00 +19°C° 0.1 mm 2 m/s 747 mmHg 87%
    09:00 +20°C° 0.1 mm 3 m/s 748 mmHg 84%
    10:00 +21°C° 0.6 mm 3 m/s 748 mmHg 83%
    11:00 +21°C° 0.6 mm 3 m/s 747 mmHg 82%
    12:00 +22°C° 0.6 mm 4 m/s 747 mmHg 81%
    13:00 +21°C° 0.8 mm 4 m/s 747 mmHg 83%
    14:00 +21°C° 0.8 mm 4 m/s 747 mmHg 84%
    15:00 +21°C° 0.8 mm 4 m/s 747 mmHg 86%
    16:00 +20°C° 0.6 mm 3 m/s 747 mmHg 88%
    17:00 +20°C° 0.6 mm 3 m/s 747 mmHg 90%
    18:00 +19°C° 0.6 mm 2 m/s 747 mmHg 93%
    19:00 +18°C° 0.1 mm 2 m/s 748 mmHg 93%
    20:00 +17°C° 0.1 mm 2 m/s 748 mmHg 94%
    21:00 +15°C° 0.1 mm 2 m/s 748 mmHg 95%
    22:00 +15°C° 0 mm 2 m/s 748 mmHg 95%
    23:00 +14°C° 0 mm 1 m/s 749 mmHg 95%

    21 Iunie, Vineri

    Timp Temperatura Precipitaţii Vânt Presiune Umiditate
    00:00 +13°C° 0 mm 1 m/s 749 mmHg 96%
    01:00 +13°C° 0 mm 1 m/s 749 mmHg 96%
    02:00 +12°C° 0 mm 1 m/s 749 mmHg 96%
    03:00 +12°C° 0 mm 1 m/s 749 mmHg 96%
    04:00 +12°C° 0 mm 1 m/s 749 mmHg 94%
    05:00 +13°C° 0 mm 1 m/s 749 mmHg 92%
    06:00 +14°C° 0 mm 1 m/s 750 mmHg 90%
    07:00 +15°C° 0 mm 2 m/s 750 mmHg 82%
    08:00 +17°C° 0 mm 2 m/s 750 mmHg 74%
    09:00 +18°C° 0 mm 2 m/s 750 mmHg 67%
    10:00 +19°C° 0 mm 2 m/s 750 mmHg 64%
    11:00 +20°C° 0 mm 2 m/s 750 mmHg 62%
    12:00 +20°C° 0 mm 3 m/s 750 mmHg 59%
    13:00 +21°C° 0 mm 3 m/s 750 mmHg 61%
    14:00 +21°C° 0 mm 3 m/s 749 mmHg 62%
    15:00 +21°C° 0 mm 3 m/s 749 mmHg 64%
    16:00 +20°C° 0 mm 3 m/s 749 mmHg 70%
    17:00 +20°C° 0 mm 3 m/s 749 mmHg 75%
    18:00 +19°C° 0 mm 2 m/s 749 mmHg 81%
    19:00 +18°C° 0 mm 2 m/s 750 mmHg 84%
    20:00 +16°C° 0 mm 2 m/s 750 mmHg 88%
    21:00 +14°C° 0 mm 2 m/s 750 mmHg 91%
    22:00 +14°C° 0 mm 2 m/s 750 mmHg 92%
    23:00 +13°C° 0 mm 2 m/s 750 mmHg 92%

    22 Iunie, Sâmbătă

    Timp Temperatura Precipitaţii Vânt Presiune Umiditate
    00:00 +12°C° 0 mm 2 m/s 750 mmHg 92%
    01:00 +12°C° 0 mm 2 m/s 749 mmHg 92%
    02:00 +12°C° 0 mm 2 m/s 749 mmHg 92%
    03:00 +12°C° 0 mm 2 m/s 749 mmHg 92%
    04:00 +12°C° 0 mm 3 m/s 749 mmHg 89%
    05:00 +13°C° 0 mm 3 m/s 749 mmHg 87%
    06:00 +14°C° 0 mm 3 m/s 749 mmHg 84%
    07:00 +17°C° 0 mm 3 m/s 749 mmHg 81%
    08:00 +18°C° 0 mm 3 m/s 749 mmHg 77%
    09:00 +20°C° 0 mm 3 m/s 749 mmHg 74%
    10:00 +21°C° 0.1 mm 3 m/s 748 mmHg 72%
    11:00 +22°C° 0.1 mm 3 m/s 748 mmHg 71%
    12:00 +24°C° 0.1 mm 3 m/s 748 mmHg 69%
    13:00 +24°C° 0.1 mm 3 m/s 748 mmHg 70%
    14:00 +24°C° 0.1 mm 3 m/s 747 mmHg 71%
    15:00 +24°C° 0.1 mm 3 m/s 747 mmHg 72%
    16:00 +22°C° 0.6 mm 3 m/s 747 mmHg 77%
    17:00 +22°C° 0.6 mm 3 m/s 747 mmHg 82%
    18:00 +21°C° 0.6 mm 2 m/s 746 mmHg 87%
    19:00 +20°C° 0.6 mm 2 m/s 746 mmHg 87%
    20:00 +19°C° 0.6 mm 2 m/s 747 mmHg 87%
    21:00 +19°C° 0.6 mm 1 m/s 747 mmHg 86%
    22:00 +17°C° 0.5 mm 2 m/s 747 mmHg 89%
    23:00 +17°C° 0.5 mm 2 m/s 746 mmHg 92%
    Arată mai mult